Regional Weather Roundup
Issued by NWS Charleston, WV

Home | Current Version | Previous Version | Graphics & Text | Print | Product List | Glossary On
Versions: 1 2 3 4 5 6 7 8 9 10 11 12 13 14 15 16 17 18 19 20 21 22 23 24 25 26 27 28 29 30 31 32 33 34 35 36 37
000
ASUS41 KRLX 211210
RWRRLX
West Virginia Regional Weather Roundup
National Weather Service Charleston WV
800 AM EDT TUE OCT 21 2014

Note: "fair" indicates few or no clouds below 12,000 feet with no
significant weather and/or obstructions to visibility.

WVZ003-211300-
Northern Panhandle of West Virginia

CITY           SKY/WX    TMP DP  RH WIND       PRES   REMARKS
WHEELING       CLOUDY    50  48  93 SW5       29.87R FOG
$$

WVZ009-211300-
Northwest West Virginia

CITY           SKY/WX    TMP DP  RH WIND       PRES   REMARKS
PARKERSBURG    CLOUDY    50  48  93 CALM      29.91S
$$

WVZ006-211300-
Western West Virginia

CITY           SKY/WX    TMP DP  RH WIND       PRES   REMARKS
HUNTINGTON     CLOUDY    49  48  97 SW5       29.92R
$$

WVZ015-211300-
West Central West Virginia

CITY           SKY/WX    TMP DP  RH WIND       PRES   REMARKS
CHARLESTON     CLOUDY    52  51  97 W3        29.91S
$$

WVZ022-031-211300-
North Central West Virginia

CITY           SKY/WX    TMP DP  RH WIND       PRES   REMARKS
CLARKSBURG     CLOUDY    51  48  89 SW3       29.90R
MORGANTOWN     CLOUDY    53  47  79 VRB6      29.90R
$$

WVZ025-035-042-045-211300-
Southern West Virginia

CITY           SKY/WX    TMP DP  RH WIND       PRES   REMARKS
BECKLEY        CLOUDY    48  45  89 SW6       29.94R
LOGAN          CLOUDY    52  48  87 SW3       29.92S
BLUEFIELD      CLOUDY    50  46  86 W5        29.95S
LEWISBURG      MOCLDY    47  45  94 CALM      29.93R FOG
$$

WVZ047-211300-
Northern Mountains of West Virginia

CITY           SKY/WX    TMP DP  RH WIND       PRES   REMARKS
ELKINS         CLOUDY    50  47  89 CALM      29.90S
$$

WVZ052-211300-
Eastern Panhandle of West Virginia

CITY           SKY/WX    TMP DP  RH WIND       PRES   REMARKS
MARTINSBURG    PTCLDY    45  42  89 S5        29.87S FOG
PETERSBURG     CLOUDY   N/A N/A N/A CALM      29.90R
$$


USA.gov is the U.S. government's official web portal to all federal, state and local government web resources and services.